Overview Statistics Trail Chart Weather Telemetry Raw packets
 

This is the latest recevied weather packets stored in our database for station/object KO4DYK. If no packets are shown the sender has not sent any weather packets the latest 10 day(s).

<< 6 7 8 9 10 11 12 >>
Time Temp. Humidity Pressure Rain* Wind** Luminosity Snow
1788613339 25° C 99% 1016.3 hPa 0 mm - 61 W/m² -
1788613034 24.44° C 99% 1016.2 hPa 0 mm - 57 W/m² -
1788612729 23.89° C 99% 1016.1 hPa 0 mm - 52 W/m² -
1788612433 23.89° C 99% 1016.2 hPa 0 mm - 49 W/m² -
1788612122 23.33° C 99% 1016.3 hPa 0 mm - 46 W/m² -
1788611822 23.33° C 99% 1016.3 hPa 0 mm - 43 W/m² -
1788611519 22.78° C 99% 1016.3 hPa 0 mm - 40 W/m² -
1788611218 22.78° C 99% 1016.2 hPa 0 mm - 36 W/m² -
1788610913 22.22° C 99% 1016.1 hPa 0 mm - 34 W/m² -
1788610609 22.22° C 99% 1016.1 hPa 0 mm - 30 W/m² -
1788610304 22.22° C 99% 1016 hPa 0 mm - 26 W/m² -
1788610003 22.22° C 99% 1016.1 hPa 0 mm - 21 W/m² -
1788609698 22.22° C 99% 1016 hPa 0 mm - 17 W/m² -
1788609397 22.22° C 99% 1016 hPa 0 mm - 13 W/m² -
1788609092 22.22° C 99% 1016 hPa 0 mm - 10 W/m² -
1788608792 22.22° C 99% 1015.9 hPa 0 mm - 7 W/m² -
1788608490 22.22° C 99% 1016.1 hPa 0 mm - 4 W/m² -
1788608186 22.22° C 99% 1015.9 hPa 0 mm - 2 W/m² -
1788607882 22.22° C 99% 1015.8 hPa 0 mm - 1 W/m² -
1788607581 22.22° C 99% 1015.7 hPa 0 mm - 0 W/m² -
1788607277 22.22° C 99% 1015.6 hPa 0 mm - 0 W/m² -
1788606972 22.22° C 99% 1015.6 hPa 0 mm - 0 W/m² -
1788606671 22.22° C 99% 1015.7 hPa 0 mm - 0 W/m² -
1788606370 22.22° C 99% 1015.6 hPa 0 mm - 0 W/m² -
1788606079 22.22° C 99% 1015.9 hPa 0 mm - 0 W/m² -

* Rain latest hour (hover to see other rain measurements)
** Current wind speed in m/s (hover to see current wind gust speed)